Regional Weather Roundup
Issued by NWS Jackson, KY

Home | Current Version | Previous Version | Graphics & Text | Print | Product List | Glossary On
Versions: 1 2 3 4 5 6 7 8 9 10 11 12 13 14 15 16 17 18 19 20 21 22 23 24 25 26 27 28
000
ASUS43 KJKL 022210
RWRJKL

EAST KENTUCKY HOURLY WEATHER ROUNDUP
NATIONAL WEATHER SERVICE JACKSON KY
500 PM EST FRI DEC 02 2016

NOTE: "FAIR" INDICATES FEW OR NO CLOUDS BELOW 12,000 FEET WITH
NO SIGNIFICANT WEATHER AND/OR OBSTRUCTIONS TO VISIBILITY.

* THESE REPORTS ARE NOT UNDER NWS QUALITY CONTROL AND MAY NOT
  REPORT WEATHER SUCH AS PRECIPITATION AND FOG.

KYZ079-080-083-085-087-088-110-112-115-119-120-022300
...EASTERN KENTUCKY...

CITY           SKY/WX    TMP DP  RH WIND       PRES   REMARKS
JACKSON        CLEAR     42  29  59 VRB5      30.20F
LONDON         CLEAR     48  25  40 W9        30.20S
SOMERSET*      CLEAR     46  27  46 NW5       30.24R
MONTICELLO*    CLEAR     48  30  49 W7        30.25R
WILLIAMSBURG*  CLEAR     48  27  43 NW5       30.21S
MIDDLESBORO*   CLEAR     50  25  36 W3        30.21S
HARLAN APT*    CLEAR     48  23  37 SW10      30.19R
PIKE CO APT*     N/A     41  30  65 N6        30.19F
BIG SANDY APT* MOCLDY    41  30  65 N9        30.22R
MOREHEAD APT*  CLOUDY    39  28  65 VRB3      30.26S
ASHLAND*       CLOUDY    39  30  70 W5        30.24S
$$

KYZ035-036-041-042-044-050-067-078-099-022300
...CENTRAL KENTUCKY...

CITY           SKY/WX    TMP DP  RH WIND       PRES   REMARKS
MT STERLING*   MOCLDY    39  32  75 N3        30.25S
FLEMING/MASON* CLOUDY    37  29  72 W6        30.25S WCI  33
DANVILLE*      CLEAR     43  30  61 N6        30.24R
LEXINGTON      CLEAR     40  29  64 N8        30.24S WCI  34
FRANKFORT      CLOUDY    42  29  59 NW6       30.24S
LOUISVILLE     MOCLDY    46  28  49 W9        30.25S
LEBANON*         N/A     45  32  61 NW5       30.24R
GLASGOW*       CLEAR     49  29  46 W3        30.25R
BOWLING GREEN  CLEAR     51  27  39 NW6       30.27R
$$

KYZ091>093-OHZ055-061-077-WVZ005-015-034-035-042-022300
...SOUTHERN OHIO/WEST VIRGINIA...

CITY           SKY/WX    TMP DP  RH WIND       PRES   REMARKS
COVINGTON      CLOUDY    39  30  70 W9        30.24R WCI  33
COLUMBUS       CLOUDY    38  32  79 W13       30.18S WCI  30
DAYTON         CLOUDY    38  29  70 NW9       30.22R WCI  31
WILMINGTON     CLOUDY    38  30  73 W9        30.21R WCI  31
HUNTINGTON     CLOUDY    39  28  64 W9        30.24S WCI  33
CHARLESTON     CLOUDY    38  28  67 W10G16    30.22R WCI  31
PINEVILLE*     MOCLDY    41  29  61 MISG      30.22R
BECKLEY        CLOUDY    35  27  72 NW12      30.15R WCI  27
BLUEFIELD      CLEAR     38  26  62 NW14G22   30.12R WCI  30
LOGAN CO APT*  CLOUDY    39  30  70 CALM      30.19S
$$

VAZ002-007-008-TNZ017-027-036-066-071-022300
...SOUTHWEST VIRGINIA/EAST TENNESSEE...

CITY           SKY/WX    TMP DP  RH WIND       PRES   REMARKS
WISE*          CLEAR     43  23  45 W7        30.16S
JONESVILLE*      N/A     48  25  40 CALM      30.21S
ABINGDON*      CLEAR     48  26  42 W10       30.15F
BRISTOL        PTCLDY    49  27  42 SW10      30.17S
MORRISTOWN*    CLEAR     52  28  40 SW7       30.18F
SEVIERVILLE*   CLEAR     52  27  37 W5        30.20F
KNOXVILLE      PTCLDY    52  30  43 S6        30.19F
OAK RIDGE      CLEAR     55  28  35 CALM      30.21S
CROSSVILLE     CLEAR     50  26  39 W9        30.23R
NASHVILLE      PTCLDY    57  27  31 N6        30.26R
$$

...KEY TO REMARKS...
VSB - VISIBILITY IN MILES
WCI - WIND CHILL INDEX
HX  - HEAT INDEX

$$




USA.gov is the U.S. government's official web portal to all federal, state and local government web resources and services.